EA3IK-1 Weather Reports


Display with metric or nautical units.
time (UTC)temp
F
wind
direction
speed
MPH
gust
MPH
rain 1hr
in
rain 24hr
in
rain mn
in
humidity
%
barometer
mb
20260506164802 65 296 6.0 12.0 0.00 0.01 0.00 65 1009.8
20260506163301 66 297 6.0 13.0 0.00 0.01 0.00 65 1009.8
20260506161800 66 298 10.0 14.0 0.00 0.01 0.00 64 1009.6
20260506160300 69 335 7.0 14.0 0.00 0.01 0.00 58 1009.5
20260506154759 73 0 0.0 2.0 0.00 0.08 0.00 48 1009.4
20260506153258 73 33 2.0 6.0 0.00 0.08 0.00 47 1009.5
20260506151757 74 93 2.0 7.0 0.00 0.08 0.00 47 1009.6
20260506150302 74 75 1.0 4.0 0.00 0.08 0.00 47 1009.8
20260506144755 73 107 2.0 6.0 0.00 0.09 0.00 48 1009.8
20260506143254 73 10 1.0 4.0 0.00 0.09 0.00 46 1009.9
20260506141754 73 16 2.0 8.0 0.00 0.09 0.00 47 1010.1
20260506140253 72 46 4.0 11.0 0.00 0.09 0.00 48 1010.2
20260506134752 73 31 2.0 10.0 0.00 0.09 0.00 47 1010.3
20260506133251 72 0 3.0 7.0 0.00 0.09 0.00 49 1010.4
20260506131750 73 88 2.0 4.0 0.00 0.09 0.00 48 1010.7
20260506130249 73 66 2.0 7.0 0.00 0.09 0.00 49 1010.8
20260506124748 73 111 2.0 7.0 0.00 0.09 0.00 49 1010.8
20260506123248 73 28 2.0 9.0 0.00 0.09 0.00 49 1010.9
20260506121747 72 109 2.0 6.0 0.00 0.09 0.00 49 1011.0
20260506120246 72 9 1.0 6.0 0.00 0.09 0.00 53 1011.1
20260506114745 71 335 2.0 8.0 0.00 0.09 0.00 54 1011.1
20260506113244 71 251 3.0 7.0 0.00 0.09 0.00 56 1011.2
20260506111743 72 136 1.0 4.0 0.00 0.09 0.00 51 1011.4
20260506110242 70 5 1.0 6.0 0.00 0.09 0.00 54 1011.6
20260506104742 68 114 2.0 7.0 0.00 0.09 0.09 56 1011.6
20260506103241 69 137 2.0 5.0 0.00 0.09 0.09 55 1011.8
20260506101740 67 146 2.0 4.0 0.00 0.09 0.09 58 1012.0
20260506100239 66 123 3.0 8.0 0.00 0.09 0.09 59 1012.1
20260506094738 64 96 2.0 5.0 0.00 0.09 0.09 65 1012.3
20260506093237 62 237 2.0 7.0 0.00 0.09 0.09 67 1012.4
20260506091737 63 155 1.0 4.0 0.00 0.09 0.09 66 1012.6
20260506090236 61 211 2.0 5.0 0.00 0.09 0.09 65 1012.6
20260506084735 60 201 2.0 3.0 0.00 0.09 0.09 64 1012.6
20260506083234 58 222 4.0 8.0 0.00 0.09 0.09 64 1012.5
20260506081733 58 219 4.0 11.0 0.00 0.09 0.09 62 1012.3
20260506080232 58 209 5.0 12.0 0.00 0.09 0.09 62 1012.2
20260506073231 56 116 4.0 13.0 0.00 0.09 0.09 55 1012.1
20260506071730 54 213 4.0 7.0 0.00 0.09 0.09 53 1012.2
20260506070229 53 217 4.0 10.0 0.00 0.09 0.09 53 1012.3
20260506061726 53 194 2.0 7.0 0.00 0.09 0.09 47 1012.2
20260506060225 53 214 1.0 3.0 0.00 0.09 0.09 45 1012.1
20260506050222 49 133 0.0 0.0 0.00 0.09 0.09 44 1011.6
20260506044721 49 134 1.0 3.0 0.00 0.09 0.09 44 1011.4
20260506043220 49 139 1.0 3.0 0.00 0.09 0.09 43 1011.5
20260506041719 50 140 0.0 2.0 0.00 0.09 0.09 42 1011.3
20260506040219 50 147 0.0 3.0 0.00 0.09 0.09 40 1011.2
20260506034718 49 130 1.0 3.0 0.00 0.09 0.09 40 1011.2
20260506033217 50 91 0.0 3.0 0.00 0.09 0.09 38 1011.1
20260506031716 50 15 0.0 0.0 0.00 0.09 0.09 38 1011.0
20260506030216 49 16 0.0 0.0 0.00 0.09 0.09 39 1011.0
20260506024714 50 346 0.0 2.0 0.00 0.09 0.09 38 1010.8
20260506023214 49 333 0.0 3.0 0.00 0.09 0.09 39 1011.0
20260506021713 49 333 0.0 1.0 0.00 0.09 0.09 39 1010.9
20260506020212 50 333 1.0 2.0 0.00 0.09 0.09 39 1010.7
20260506014711 51 161 2.0 7.0 0.00 0.09 0.09 37 1010.6
20260506013210 50 290 0.0 2.0 0.00 0.09 0.09 38 1010.6
20260506011709 50 287 0.0 3.0 0.00 0.09 0.09 38 1010.5
20260506010208 50 34 0.0 4.0 0.00 0.09 0.09 40 1010.8
20260506004707 52 131 0.0 3.0 0.00 0.09 0.09 38 1010.9
20260506003207 52 150 1.0 3.0 0.00 0.09 0.09 37 1011.0
20260506001706 52 101 0.0 2.0 0.00 0.09 0.09 37 1011.0
20260506000205 52 101 0.0 0.0 0.00 0.09 0.09 38 1011.1
20260505234704 52 113 0.0 0.0 0.00 0.09 0.09 37 1011.0
20260505233203 53 115 0.0 3.0 0.00 0.09 0.09 37 1011.0
20260505231702 53 168 0.0 0.0 0.00 0.09 0.09 36 1011.0
20260505230201 53 265 0.0 0.0 0.00 0.09 0.09 36 1010.9
20260505224701 53 265 1.0 2.0 0.00 0.09 0.09 37 1010.9
20260505223200 53 355 0.0 2.0 0.00 0.09 0.09 38 1011.1
20260505221659 53 9 0.0 1.0 0.00 0.09 0.09 40 1011.4
20260505220158 54 9 1.0 3.0 0.00 0.09 0.09 42 1011.5
20260505214657 56 159 0.0 0.0 0.00 0.10 0.09 39 1011.5
20260505213156 55 150 0.0 4.0 0.00 0.10 0.09 40 1011.5
20260505211656 55 117 0.0 2.0 0.00 0.10 0.09 40 1011.5
20260505210155 56 117 0.0 1.0 0.00 0.10 0.09 38 1011.4
20260505204654 56 117 1.0 3.0 0.00 0.10 0.09 38 1011.5
20260505203153 55 115 0.0 0.0 0.00 0.10 0.09 38 1011.0
20260505201652 56 116 0.0 1.0 0.00 0.10 0.09 38 1010.9
20260505200151 55 116 0.0 0.0 0.00 0.10 0.09 39 1010.7
20260505194650 56 116 0.0 0.0 0.00 0.16 0.09 40 1010.4
20260505193150 57 188 0.0 1.0 0.00 0.16 0.09 41 1010.3
20260505191649 56 183 2.0 7.0 0.00 0.16 0.09 37 1009.9
20260505190148 56 183 1.0 4.0 0.00 0.16 0.09 35 1009.8
20260505184647 57 183 1.0 4.0 0.00 0.17 0.09 34 1009.9
20260505183146 57 136 0.0 3.0 0.00 0.17 0.09 34 1009.9
20260505181645 56 175 0.0 2.0 0.00 0.17 0.09 34 1009.9
20260505180144 57 107 0.0 2.0 0.00 0.17 0.09 34 1010.0
20260505174644 57 115 0.0 2.0 0.01 0.17 0.09 34 1009.9
20260505173143 57 118 1.0 2.0 0.03 0.17 0.09 35 1010.1
20260505171642 56 234 1.0 4.0 0.05 0.17 0.09 37 1010.0
20260505170141 56 237 1.0 7.0 0.06 0.17 0.09 38 1009.9